Location: West Cummington
(42.4920°N, 72.9680°W)
Time: 22:50:53
(UTC-05:00)

ATLAS 2AS CENTAUR R/B - Visible Passes

Search period start: 22 November 2017 00:00
Search period end: 02 December 2017 00:00
Orbit: 909 x 1303 km, 63.7° (Epoch: 19 November)

Date Brightness Start Highest point End Pass type
(mag) Time Alt. Az. Time Alt. Az. Time Alt. Az.
22 Nov 5.4 02:04:33 12° NNE 02:04:33 12° NNE 02:05:34 10° NNE visible
22 Nov 4.9 03:52:00 15° NNW 03:54:57 18° NNE 03:59:58 10° NE visible
22 Nov 4.1 05:41:06 10° NNW 05:48:31 38° NE 05:55:29 10° ESE visible
23 Nov 5.0 03:08:44 16° N 03:09:07 16° N 03:13:46 10° NE visible
23 Nov 4.5 04:56:18 10° NNW 05:03:09 29° NNE 05:09:40 10° E visible
24 Nov 5.2 02:25:30 14° NNE 02:25:30 14° NNE 02:27:50 10° NNE visible
24 Nov 4.7 04:12:57 14° NNW 04:17:38 23° NNE 04:23:35 10° ENE visible
24 Nov 3.4 06:02:21 10° NNW 06:10:20 65° NE 06:17:41 10° SE visible
25 Nov 4.8 03:29:45 17° N 03:31:58 19° NNE 03:37:19 10° ENE visible
25 Nov 3.8 05:17:32 10° NNW 05:25:13 46° NE 05:32:23 10° ESE visible
26 Nov 5.0 02:46:35 17° NNE 02:46:35 17° NNE 02:51:01 10° NE visible
26 Nov 4.2 04:34:02 15° NNW 04:39:58 34° NE 04:46:45 10° E visible
26 Nov 3.1 06:23:46 10° NW 06:31:41 72° WSW 06:38:57 10° SSE visible
27 Nov 5.4 02:03:28 13° NNE 02:03:28 13° NNE 02:04:54 10° NE visible
27 Nov 4.6 03:50:55 19° N 03:54:32 26° NNE 04:00:49 10° E visible
27 Nov 3.1 05:38:50 10° NW 05:46:52 79° NE 05:54:15 10° SE visible
28 Nov 4.8 03:07:52 21° NNE 03:08:57 21° NNE 03:14:39 10° ENE visible
28 Nov 3.5 04:55:19 16° NNW 05:01:53 56° NE 05:09:10 10° SE visible
29 Nov 5.1 02:24:52 17° NNE 02:24:52 17° NNE 02:28:20 10° NE visible
29 Nov 4.0 04:12:19 23° NNW 04:16:42 41° NE 04:23:44 10° ESE visible
29 Nov 3.1 06:00:21 10° NW 06:08:04 57° WSW 06:15:09 10° SSE visible
30 Nov 5.5 01:41:55 10° NE 01:41:55 10° NE 01:42:06 10° NE visible
30 Nov 4.4 03:29:23 27° N 03:31:22 31° NE 03:37:58 10° E visible
30 Nov 2.9 05:16:52 17° NW 05:23:21 84° WSW 05:30:41 10° SSE visible
30 Nov 5.0 19:08:02 10° SSE 19:08:04 10° SSE 19:08:04 10° SSE visible
01 Dec 4.7 02:46:32 24° NE 02:46:32 24° NE 02:51:55 10° ENE visible
01 Dec 3.2 04:34:00 29° NNW 04:38:28 69° NE 04:45:50 10° SE visible
01 Dec 3.8 06:22:26 10° NW 06:28:49 28° WSW 06:34:48 10° SSW visible
01 Dec 4.8 18:25:17 10° SE 18:25:46 11° SE 18:25:46 11° SE visible
01 Dec 4.9 20:12:07 10° SSW 20:13:17 16° SSW 20:13:17 16° SSW visible
